Regional Weather Roundup
Issued by NWS Newport/Morehead, NC

Current Version | Previous Version | Graphics & Text | Print | Product List | Glossary Off
Versions: 1 2 3 4 5 6 7 8 9 10 11 12 13 14 15 16 17 18 19 20 21 22 23 24 25 26 27 28 29 30 31 32 33 34 35 36 37 38 39 40 41 42 43 44 45 46 47 48 49 50

000
ASUS42 KMHX 290325
RWRMHX
WEATHER ROUNDUP FOR EASTERN NORTH CAROLINA
NATIONAL WEATHER SERVICE NEWPORT/MOREHEAD CITY NC
1100 PM EDT WED SEP 28 2016

NOTE: "FAIR" INDICATES FEW OR NO CLOUDS BELOW 12,000 FEET
WITH NO SIGNIFICANT WEATHER AND/OR OBSTRUCTIONS TO VISIBILITY

NCZ015>017-031-032-045>047-102-103-290400-
NORTH COAST

CITY           SKY/WX    TMP DP  RH WIND       PRES   REMARKS
EDENTON        CLEAR     75  75 100 SE7       30.01R
ELIZABETH CITY CLEAR     74  71  91 SE9       30.02R
KITTY HAWK     CLEAR     74  73  98 SE3       30.02R
MANTEO         CLEAR     73  72  98 SE5       30.03S

$$

NCZ045>047-081-094-103-104-290400-
CENTRAL COAST

CITY           SKY/WX    TMP DP  RH WIND       PRES   REMARKS
FRISCO         CLEAR     77  73  87 SE8       30.01F

$$

NCZ095-097-098-100-101-290400-
SOUTHERN COAST

CITY           SKY/WX    TMP DP  RH WIND       PRES   REMARKS
BEAUFORT       CLEAR     79  73  82 S5        30.00S
CEDAR ISLAND   NOT AVBL
JACKSONVILLE   CLEAR     73  70  90 S3        29.99S
PINEY ISLAND   CLEAR    N/A N/A N/A CALM      30.00S
WILMINGTON     CLEAR     74  71  91 S6        29.99S


$$

NCZ011>013-027>030-043-044-078>080-089-090>093-098-290400-
COASTAL PLAIN

CITY           SKY/WX    TMP DP  RH WIND       PRES   REMARKS
AHOSKIE        CLOUDY    70  70  98 CALM      30.00R
CLINTON        PTCLDY    74  71  91 S5        29.97S
ELIZABETHTOWN  CLEAR     74  71  88 S8        29.96F
GOLDSBORO      MOCLDY    74  74 100 SE7       29.94S
GREENVILLE     PTCLDY    73  72  94 S9        30.00S
HAVELOCK       CLEAR     73  69  87 SE3       30.01R
KENANSVILLE    CLEAR     70  70 100 SE3       29.97F
KINSTON        CLEAR     74  71  92 SE6       29.99S
NEW BERN       CLEAR     74  69  85 SE6       30.01S
RICHLANDS      CLEAR     74  71  91 SE8       29.98F
ROCKY MOUNT    LGT RAIN  72  72 100 SE3       29.97S FOG
WASHINGTON     CLEAR     73  69  86 SE6       29.99S
WHITEVILLE     CLEAR     75  71  88 SE6       29.97F

$$

AMZ130-135-150-152-154-156-158-170-250-252-270-ANZ085-086-088-633-658-670-290400-
MARINE OBSERVATIONS

STATION/POSITION TIME  TEMP    WIND        PRES    WAVE   SWELL
                       AIR SEA DIR/SP/G            HT/PER HT/PER
                 (UTC) (F)     (DEG/KT/KT) (MB)    (FT/S) (FT/S)
CHESAPEAKE LIGHT NOT AVBL
64 E VA BEACH    0250   75 74  110/  4/  6 1017.0    6/ 8   5/ 8
DUCK             0300   76 76  140/ 14/ 15 1016.2
2 E DUCK         0241      77                N/A     3/ 7   2/11
OREGON INLET     0300   75 79  120/  5/  9 1016.6
13E OREGON INLT  0300      77                N/A     4/ 8   3/ 8
HATTERAS CG      0300   78 79  120/  3/  6 1016.1
DIAMOND BUOY     0250   81 83  140/ 14/ 17 1016.1    4/ 7   3/ 8
CAPE LOOKOUT     0300   80     150/ 10/ 11 1015.5
BEAUFORT LAB     0300   80 77  170/  9/ 11 1015.3
30 SE NEW RVR IN 0208   81 83  150/ 14/ 19 1015.6
30 SE NEW RVR IN 0255      83                N/A     3/ 7   2/11
27 SE WRIGHTSVLE 0208   81 81  160/ 12/ 14 1015.8
5 SE WRIGHTSVLE  0208   80 81  180/ 12/ 17 1016.7
225 S CAPE HAT   0250   82 83  200/ 14/ 16 1017.0    4/ 6   2/11
41 SE CHARLESTON 0250   83 82  190/ 12/ 14 1014.6    3/11   2/11

$$



USA.gov is the U.S. government's official web portal to all federal, state and local government web resources and services.